Location: Moscow
(55.7500°N, 37.5830°E)
Time: 20:44:21
(UTC+03:00)

Vanguard 2 Rocket - Pass Details

Date: 09 December 2021
Orbit: 554 x 3325 km, 32.9° (Epoch: 20 January)

Event Time Altitude Azimuth Distance (km) Brightness Sun altitude
Rises 20:15:42 0° 231° (SW) 3,600 10.5 -34.6°
Reaches altitude 10° 20:20:51 10° 195° (SSW) 3,230 9.7 -35.3°
Enters shadow 20:22:06 11° 185° (S) 3,321 9.7 -35.5°
